User: anonymous   Login
Location: Raven Hill Discovery Center
(45.1336°N, 85.0553°W)
Time: 12:46:36
(UTC-04:00)
Language:

Cosmos 1470 - Orbit

View from above orbital plane
View from above orbital plane
View from above satellite
View from above satellite

Ground track
Ground track

The orbit data is extracted from the following two-line orbital elements,

1 14147U 83061A   17142.93767703 +.00000398 +00000-0 +22225-4 0  9999
2 14147 082.4831 063.7721 0015655 355.4620 004.6465 15.10609384600725
Epoch (UTC): 22 May 2017 22:30:15
Eccentricity: 0.0015655
inclination: 82.4831°
perigee height: 523 km
apogee height: 545 km
right ascension of ascending node: 63.7721°
argument of perigee: 355.4620°
revolutions per day: 15.10609384
mean anomaly at epoch: 4.6465°
orbit number at epoch: 60072

The dashed part of the orbit path shows where the satellite is in the earth's shadow,  

DLR